GW5777 Weather Reports


time (UTC)temp
C
wind
direction
speed
KPH
gust
KPH
rain 1hr
cm
rain 24hr
cm
rain mn
cm
humidity
%
barometer
mb
20260508013357 3 111 0.0 1.6 0.00 0.00 0.00 54 1011.6
20260508012855 3 137 0.0 3.2 0.00 0.00 0.00 53 1011.6
20260508012352 3 190 0.0 1.6 0.00 0.00 0.00 53 1011.6
20260508011850 3 269 0.0 3.2 0.00 0.00 0.00 52 1011.5
20260508011347 3 253 0.0 3.2 0.00 0.00 0.00 52 1011.5
20260508010844 4 228 0.0 4.8 0.00 0.00 0.00 52 1011.5
20260508010341 4 262 0.0 1.6 0.00 0.00 0.00 51 1011.3
20260508005838 4 151 0.0 0.0 0.00 0.00 0.00 51 1011.3
20260508005335 4 237 3.2 4.8 0.00 0.00 0.00 50 1011.3
20260508004831 4 230 0.0 8.0 0.00 0.00 0.00 49 1011.3
20260508004328 4 310 6.4 6.4 0.00 0.00 0.00 49 1011.2
20260508003824 5 185 0.0 3.2 0.00 0.00 0.00 48 1011.3
20260508003322 5 182 3.2 8.0 0.00 0.00 0.00 47 1011.2
20260508002819 5 191 3.2 6.4 0.00 0.00 0.00 46 1011.3
20260508002315 5 256 8.0 17.7 0.00 0.00 0.00 45 1011.2
20260508001811 5 270 11.3 12.9 0.00 0.00 0.00 45 1011.2
20260508001307 5 262 9.7 19.3 0.00 0.00 0.00 46 1011.1
20260508000803 5 295 9.7 14.5 0.00 0.00 0.00 46 1011.1
20260508000300 5 270 9.7 14.5 0.00 0.00 0.00 45 1011.0
20260507235757 6 252 11.3 11.3 0.00 0.00 0.00 45 1010.8
20260507235255 5 282 6.4 11.3 0.00 0.00 0.00 45 1011.0
20260507234751 5 208 4.8 12.9 0.00 0.00 0.00 44 1011.0
20260507234248 5 278 6.4 16.1 0.00 0.00 0.00 44 1010.9
20260507233744 5 282 12.9 24.1 0.00 0.00 0.00 43 1010.9
20260507233242 6 280 12.9 14.5 0.00 0.00 0.00 43 1010.8
20260507232739 6 250 4.8 11.3 0.00 0.00 0.00 43 1010.9
20260507232236 6 222 12.9 17.7 0.00 0.00 0.00 42 1010.8
20260507231732 6 272 11.3 22.5 0.00 0.00 0.00 42 1010.7
20260507231230 6 273 4.8 17.7 0.00 0.00 0.00 42 1010.8
20260507230726 6 272 8.0 20.9 0.00 0.00 0.00 41 1010.8
20260507230224 6 285 4.8 17.7 0.00 0.00 0.00 41 1010.8
20260507225723 6 273 8.0 19.3 0.00 0.00 0.00 42 1011.0
20260507225220 6 262 14.5 22.5 0.00 0.00 0.00 41 1010.9
20260507224716 6 220 11.3 17.7 0.00 0.00 0.00 43 1011.2
20260507224213 6 249 6.4 14.5 0.00 0.00 0.00 43 1011.2
20260507223708 6 270 9.7 16.1 0.00 0.00 0.00 43 1011.0
20260507223206 6 277 14.5 19.3 0.00 0.00 0.00 42 1011.0
20260507222702 6 263 16.1 17.7 0.00 0.00 0.00 43 1011.0
20260507222159 6 223 6.4 9.7 0.00 0.00 0.00 46 1011.1
20260507221655 6 204 4.8 9.7 0.00 0.00 0.00 47 1011.2
20260507221151 6 232 4.8 12.9 0.00 0.00 0.00 47 1011.1
20260507220649 6 219 8.0 14.5 0.00 0.00 0.00 46 1011.0
20260507220147 6 221 6.4 16.1 0.00 0.00 0.00 46 1011.0
20260507215642 6 179 4.8 8.0 0.00 0.00 0.00 46 1011.3
20260507215140 6 215 4.8 6.4 0.00 0.00 0.00 46 1011.2
20260507214637 5 259 4.8 17.7 0.00 0.00 0.00 46 1011.1
20260507214134 6 277 16.1 16.1 0.00 0.00 0.00 45 1011.2
20260507213630 6 210 8.0 16.1 0.00 0.00 0.00 46 1011.2
20260507213127 6 285 9.7 17.7 0.00 0.00 0.00 45 1011.3
20260507212623 6 209 6.4 16.1 0.00 0.00 0.00 45 1011.1
20260507212120 6 201 8.0 22.5 0.00 0.00 0.00 46 1011.1
20260507211617 6 223 27.4 29.0 0.00 0.00 0.00 44 1011.2
20260507211112 6 217 17.7 32.2 0.00 0.00 0.00 44 1011.2
20260507210610 6 205 16.1 24.1 0.00 0.00 0.00 44 1011.0
20260507210107 6 224 11.3 19.3 0.00 0.00 0.00 45 1011.2
20260507205603 6 217 22.5 29.0 0.00 0.00 0.00 45 1011.2
20260507205100 6 198 4.8 12.9 0.00 0.00 0.00 46 1011.2
20260507204556 6 218 8.0 14.5 0.00 0.00 0.00 48 1011.2
20260507204054 6 238 4.8 11.3 0.00 0.00 0.00 47 1011.2
20260507203551 5 214 9.7 14.5 0.00 0.00 0.00 46 1011.6
20260507203049 6 223 12.9 20.9 0.00 0.00 0.00 47 1011.3
20260507202544 6 259 6.4 9.7 0.00 0.00 0.00 47 1011.6
20260507202041 6 196 6.4 16.1 0.00 0.00 0.00 46 1011.7
20260507201536 6 222 8.0 22.5 0.00 0.00 0.00 44 1011.3
20260507201033 6 218 14.5 14.5 0.00 0.00 0.00 46 1011.3
20260507200528 6 199 6.4 22.5 0.00 0.00 0.00 46 1011.2
20260507200025 6 262 19.3 19.3 0.00 0.00 0.00 45 1011.5
20260507195522 6 231 12.9 19.3 0.00 0.00 0.00 45 1011.6
20260507195020 6 230 4.8 22.5 0.00 0.00 0.00 46 1011.5
20260507194516 6 213 24.1 27.4 0.00 0.00 0.00 46 1011.5
20260507194012 6 244 16.1 20.9 0.00 0.00 0.00 47 1011.5
20260507193509 6 251 12.9 22.5 0.00 0.00 0.00 47 1011.6
20260507193006 6 276 9.7 9.7 0.00 0.00 0.00 47 1011.6
20260507192502 6 311 8.0 16.1 0.00 0.00 0.00 47 1011.6
20260507191959 5 256 9.7 9.7 0.00 0.00 0.00 47 1011.9
20260507191454 6 269 12.9 19.3 0.00 0.00 0.00 48 1011.7
20260507190952 5 324 3.2 11.3 0.00 0.00 0.00 48 1011.8
20260507190449 5 245 12.9 20.9 0.00 0.00 0.00 47 1011.9
20260507185948 5 289 8.0 16.1 0.00 0.00 0.00 48 1011.9
20260507185445 5 291 17.7 17.7 0.00 0.00 0.00 47 1012.1
20260507184941 5 239 11.3 17.7 0.00 0.00 0.00 48 1011.8
20260507184439 5 276 6.4 14.5 0.00 0.00 0.00 48 1012.0
20260507183937 5 271 1.6 14.5 0.00 0.00 0.00 49 1011.9
20260507183434 5 266 6.4 12.9 0.00 0.00 0.00 47 1011.9
20260507182931 5 231 11.3 16.1 0.00 0.00 0.00 47 1011.8
20260507182427 5 258 9.7 9.7 0.00 0.00 0.00 48 1011.8
20260507181923 5 261 6.4 19.3 0.00 0.00 0.00 48 1012.0
20260507181419 5 289 6.4 9.7 0.00 0.00 0.00 52 1011.9
20260507180916 5 261 6.4 17.7 0.00 0.00 0.00 53 1011.9
20260507180413 5 33 3.2 19.3 0.00 0.00 0.00 53 1012.1
20260507175909 5 295 4.8 6.4 0.00 0.00 0.00 51 1012.0
20260507175406 5 354 6.4 16.1 0.00 0.00 0.00 53 1011.9
20260507174903 5 47 9.7 9.7 0.00 0.00 0.00 54 1012.2
20260507174400 5 315 9.7 14.5 0.00 0.00 0.00 52 1012.2
20260507173858 5 262 9.7 9.7 0.00 0.00 0.00 53 1012.3
20260507173355 5 284 6.4 8.0 0.00 0.00 0.00 52 1012.4
20260507172851 5 4 12.9 22.5 0.00 0.00 0.00 51 1012.3
20260507172348 5 263 6.4 11.3 0.00 0.00 0.00 54 1012.5
20260507171844 5 271 8.0 17.7 0.00 0.00 0.00 54 1012.6
20260507171341 5 296 9.7 17.7 0.00 0.00 0.00 54 1012.6
20260507170838 5 266 16.1 19.3 0.00 0.00 0.00 54 1012.6
20260507170334 5 290 14.5 22.5 0.00 0.00 0.00 53 1012.5
20260507165830 5 231 6.4 24.1 0.00 0.00 0.00 55 1012.6
20260507165326 5 240 6.4 19.3 0.00 0.00 0.00 54 1012.8
20260507164822 5 176 4.8 6.4 0.00 0.00 0.00 56 1013.0
20260507164320 5 201 6.4 11.3 0.00 0.00 0.00 53 1012.8
20260507163817 5 212 11.3 12.9 0.00 0.00 0.00 53 1012.8
20260507163314 5 268 9.7 17.7 0.00 0.00 0.00 53 1012.7
20260507162810 5 310 8.0 11.3 0.00 0.00 0.00 53 1012.9
20260507162307 5 204 4.8 14.5 0.00 0.00 0.00 52 1012.9
20260507161804 5 253 9.7 29.0 0.00 0.00 0.00 53 1012.8
20260507161300 5 225 17.7 20.9 0.00 0.00 0.00 55 1012.8
20260507160756 5 255 8.0 17.7 0.00 0.00 0.00 53 1013.1
20260507160252 5 229 11.3 12.9 0.00 0.00 0.00 57 1013.0
20260507155748 5 179 9.7 20.9 0.00 0.00 0.00 56 1013.0
20260507155244 5 269 8.0 17.7 0.00 0.00 0.00 57 1013.1
20260507154741 5 213 9.7 14.5 0.00 0.00 0.00 57 1013.1
20260507154239 4 283 11.3 14.5 0.00 0.00 0.00 56 1013.2
20260507153735 4 232 9.7 16.1 0.00 0.00 0.00 56 1013.1
20260507153232 4 220 17.7 20.9 0.00 0.00 0.00 57 1013.2
20260507152728 4 305 3.2 16.1 0.00 0.00 0.00 55 1013.2
20260507152225 4 16 6.4 17.7 0.00 0.00 0.00 56 1013.1
20260507151721 4 277 8.0 14.5 0.00 0.00 0.00 58 1013.3
20260507151217 3 249 1.6 9.7 0.00 0.00 0.00 58 1013.3
20260507150714 3 302 6.4 17.7 0.00 0.00 0.00 57 1013.3
20260507150211 3 237 8.0 19.3 0.00 0.00 0.00 56 1013.3
20260507145707 4 289 11.3 20.9 0.00 0.00 0.00 57 1013.5
20260507145204 4 296 3.2 9.7 0.00 0.00 0.00 57 1013.2
20260507144700 3 274 8.0 14.5 0.00 0.00 0.00 57 1013.2
20260507144159 3 224 12.9 16.1 0.00 0.00 0.00 58 1013.1
20260507143655 3 187 6.4 16.1 0.00 0.00 0.00 57 1013.4
20260507143152 3 205 9.7 17.7 0.00 0.00 0.00 59 1013.3
20260507142647 3 243 9.7 14.5 0.00 0.00 0.00 60 1013.3
20260507142145 3 216 24.1 25.7 0.00 0.00 0.00 58 1013.1
20260507141641 3 217 11.3 19.3 0.00 0.00 0.00 60 1013.1
20260507141138 3 313 3.2 9.7 0.00 0.00 0.00 61 1013.3
20260507140634 3 227 3.2 8.0 0.00 0.00 0.00 60 1013.4
20260507140132 3 254 3.2 9.7 0.00 0.00 0.00 61 1013.4
20260507135629 3 313 3.2 9.7 0.00 0.00 0.00 61 1013.0
20260507135126 3 223 8.0 16.1 0.00 0.00 0.00 62 1013.2
20260507134622 3 265 6.4 6.4 0.00 0.00 0.00 62 1013.3
20260507134118 3 336 9.7 17.7 0.00 0.00 0.00 62 1013.3
20260507133614 3 289 4.8 9.7 0.00 0.00 0.00 63 1013.5
20260507133112 3 200 6.4 6.4 0.00 0.00 0.00 66 1013.0
20260507132609 3 230 3.2 11.3 0.00 0.00 0.00 66 1013.3
20260507132105 2 267 8.0 11.3 0.00 0.00 0.00 67 1013.3
20260507131602 2 239 4.8 6.4 0.00 0.00 0.00 67 1013.1
20260507131100 2 278 9.7 11.3 0.00 0.00 0.00 67 1013.0
20260507130556 2 218 4.8 9.7 0.00 0.00 0.00 68 1013.2
20260507130054 2 197 4.8 8.0 0.00 0.00 0.00 67 1013.2
20260507125553 2 278 4.8 8.0 0.00 0.00 0.00 66 1013.4
20260507125050 2 267 4.8 9.7 0.00 0.00 0.00 67 1013.1
20260507124546 2 229 11.3 11.3 0.00 0.00 0.00 67 1013.2
20260507124044 2 275 9.7 12.9 0.00 0.00 0.00 67 1013.1
20260507123542 2 209 9.7 9.7 0.00 0.00 0.00 67 1013.0
20260507123038 2 213 14.5 14.5 0.00 0.00 0.00 67 1013.1
20260507122533 2 205 9.7 9.7 0.00 0.00 0.00 68 1013.2
20260507122030 2 219 4.8 14.5 0.00 0.00 0.00 68 1013.0
20260507121525 2 217 9.7 9.7 0.00 0.00 0.00 68 1013.1
20260507121021 2 243 3.2 17.7 0.00 0.00 0.00 68 1012.9
20260507120518 2 199 3.2 6.4 0.00 0.00 0.00 68 1013.0
20260507120015 3 205 3.2 4.8 0.00 0.00 0.00 67 1013.0
20260507115511 3 131 6.4 6.4 0.00 0.00 0.00 70 1013.0
20260507115007 2 95 3.2 4.8 0.00 0.00 0.00 72 1012.8
20260507114503 1 117 3.2 4.8 0.00 0.00 0.00 74 1012.9
20260507114000 0 145 3.2 6.4 0.00 0.00 0.00 74 1013.0
20260507113458 0 137 3.2 4.8 0.00 0.00 0.00 77 1012.6
20260507112955 0 131 4.8 4.8 0.00 0.00 0.00 77 1012.9
20260507112452 0 139 3.2 6.4 0.00 0.00 0.00 75 1012.6
20260507111949 1 135 3.2 6.4 0.00 0.00 0.00 71 1012.7
20260507111446 1 125 3.2 4.8 0.00 0.00 0.00 72 1012.6
20260507110942 1 126 3.2 4.8 0.00 0.00 0.00 71 1012.5
20260507110438 1 120 3.2 3.2 0.00 0.00 0.00 74 1012.5
20260507105935 0 119 3.2 3.2 0.00 0.00 0.00 76 1012.5
20260507105432 0 120 3.2 3.2 0.00 0.00 0.00 80 1012.6
20260507104929 0 108 3.2 4.8 0.00 0.00 0.00 82 1012.4
20260507104426 -1 123 3.2 3.2 0.00 0.00 0.00 85 1012.6
20260507103926 -2 109 3.2 3.2 0.00 0.00 0.00 87 1012.6
20260507103424 -2 117 3.2 3.2 0.00 0.00 0.00 88 1012.5
20260507102919 -2 139 3.2 4.8 0.00 0.00 0.00 88 1012.4
20260507102417 -2 146 4.8 6.4 0.00 0.00 0.00 87 1012.4
20260507101913 -2 130 3.2 4.8 0.00 0.00 0.00 86 1012.3
20260507101408 -2 127 3.2 4.8 0.00 0.00 0.00 86 1012.3
20260507100905 -2 141 3.2 4.8 0.00 0.00 0.00 87 1012.3
20260507100403 -2 132 3.2 4.8 0.00 0.00 0.00 87 1012.5
20260507095901 -2 153 3.2 4.8 0.00 0.00 0.00 87 1012.3
20260507095357 -2 134 4.8 6.4 0.00 0.00 0.00 86 1012.3
20260507094854 -2 135 6.4 8.0 0.00 0.00 0.00 86 1012.4
20260507094351 -2 151 6.4 8.0 0.00 0.00 0.00 86 1012.4
20260507093848 -2 150 4.8 6.4 0.00 0.00 0.00 85 1012.3
20260507093346 -2 149 4.8 6.4 0.00 0.00 0.00 84 1012.3
20260507092844 -2 150 6.4 6.4 0.00 0.00 0.00 84 1012.4
20260507092340 -2 143 3.2 4.8 0.00 0.00 0.00 84 1012.5
20260507091836 -2 131 3.2 6.4 0.00 0.00 0.00 84 1012.4
20260507091333 -2 135 3.2 4.8 0.00 0.00 0.00 84 1012.6
20260507090829 -1 154 3.2 4.8 0.00 0.00 0.00 83 1012.8
20260507090325 -1 172 3.2 4.8 0.00 0.00 0.00 82 1012.6
20260507085822 -1 140 3.2 6.4 0.00 0.00 0.00 83 1012.8
20260507085319 -1 130 3.2 3.2 0.00 0.00 0.00 83 1012.6
20260507084817 -1 134 1.6 3.2 0.00 0.00 0.00 83 1012.7
20260507084313 -1 162 3.2 3.2 0.00 0.00 0.00 82 1013.0
20260507083810 -1 167 3.2 4.8 0.00 0.00 0.00 80 1012.9
20260507083307 -1 152 3.2 4.8 0.00 0.00 0.00 80 1012.8
20260507082803 -1 116 1.6 3.2 0.00 0.00 0.00 80 1012.9
20260507082258 -1 126 3.2 3.2 0.00 0.00 0.00 81 1013.0
20260507081756 -1 82 0.0 3.2 0.00 0.00 0.00 79 1012.8
20260507081251 -1 104 1.6 3.2 0.00 0.00 0.00 78 1013.0
20260507080748 -1 102 0.0 3.2 0.00 0.00 0.00 78 1013.0
20260507080244 0 101 1.6 4.8 0.00 0.00 0.00 77 1013.1
20260507075740 0 102 3.2 3.2 0.00 0.00 0.00 78 1012.9
20260507075236 -1 54 6.4 6.4 0.00 0.00 0.00 81 1012.9
20260507074732 -1 102 3.2 3.2 0.00 0.00 0.00 81 1012.9
20260507074231 0 78 3.2 3.2 0.00 0.00 0.00 78 1013.0
20260507073727 0 120 4.8 6.4 0.00 0.00 0.00 76 1012.8
20260507073224 0 129 4.8 4.8 0.00 0.00 0.00 74 1013.0
20260507072722 0 144 3.2 4.8 0.00 0.00 0.00 73 1013.1
20260507072219 0 165 3.2 4.8 0.00 0.00 0.00 75 1013.2
20260507071717 0 140 3.2 3.2 0.00 0.00 0.00 76 1013.1
20260507071213 0 128 3.2 3.2 0.00 0.00 0.00 77 1013.1
20260507070710 0 148 3.2 4.8 0.00 0.00 0.00 78 1013.3
20260507070207 0 152 4.8 6.4 0.00 0.00 0.00 77 1013.1
20260507065703 0 167 3.2 4.8 0.00 0.00 0.00 78 1013.2
20260507065200 -1 160 4.8 4.8 0.00 0.00 0.00 79 1013.4
20260507064657 -1 120 3.2 4.8 0.00 0.00 0.00 79 1013.3
20260507064156 0 143 3.2 4.8 0.00 0.00 0.00 78 1013.4
20260507063653 0 153 3.2 4.8 0.00 0.00 0.00 77 1013.3
20260507063150 0 139 3.2 3.2 0.00 0.00 0.00 77 1013.5
20260507062646 0 133 3.2 4.8 0.00 0.00 0.00 78 1013.6
20260507062144 0 154 3.2 4.8 0.00 0.00 0.00 78 1013.6
20260507061642 -1 157 3.2 4.8 0.00 0.00 0.00 78 1013.5
20260507061140 0 157 3.2 4.8 0.00 0.00 0.00 77 1013.6
20260507060637 0 163 4.8 4.8 0.00 0.00 0.00 76 1013.6
20260507060133 0 154 3.2 4.8 0.00 0.00 0.00 74 1013.7
20260507055629 0 133 3.2 3.2 0.00 0.00 0.00 74 1013.7
20260507055125 0 152 3.2 4.8 0.00 0.00 0.00 75 1013.9
20260507054621 0 124 3.2 3.2 0.00 0.00 0.00 76 1013.8
20260507054119 0 138 3.2 4.8 0.00 0.00 0.00 77 1013.7
20260507053617 0 124 3.2 3.2 0.00 0.00 0.00 75 1013.7
20260507053115 0 120 3.2 3.2 0.00 0.00 0.00 73 1013.7
20260507052613 0 129 3.2 4.8 0.00 0.00 0.00 73 1013.7
20260507052109 0 146 3.2 4.8 0.00 0.00 0.00 72 1013.8
20260507051606 1 132 3.2 4.8 0.00 0.00 0.00 71 1013.9
20260507051103 1 139 3.2 3.2 0.00 0.00 0.00 70 1013.8
20260507050600 0 134 3.2 4.8 0.00 0.00 0.00 70 1013.7
20260507050056 1 150 3.2 3.2 0.00 0.00 0.00 69 1013.8
20260507045553 1 147 3.2 4.8 0.00 0.00 0.00 68 1013.8
20260507045050 1 129 3.2 3.2 0.00 0.00 0.00 66 1014.0
20260507044547 1 142 1.6 3.2 0.00 0.00 0.00 65 1013.9
20260507044044 1 149 0.0 1.6 0.00 0.00 0.00 64 1013.8
20260507043539 2 147 0.0 3.2 0.00 0.00 0.00 64 1013.9
20260507043037 2 144 1.6 3.2 0.00 0.00 0.00 63 1014.0
20260507042533 2 187 0.0 1.6 0.00 0.00 0.00 64 1013.9
20260507042028 1 169 1.6 3.2 0.00 0.00 0.00 65 1013.9
20260507041526 1 143 1.6 3.2 0.00 0.00 0.00 65 1014.0
20260507041022 1 151 3.2 3.2 0.00 0.00 0.00 65 1014.1
20260507040519 1 154 0.0 3.2 0.00 0.00 0.00 65 1014.0
20260507040015 2 178 3.2 4.8 0.00 0.00 0.00 64 1013.9
20260507035511 2 169 3.2 4.8 0.00 0.00 0.00 64 1013.9
20260507035008 2 170 1.6 3.2 0.00 0.00 0.00 63 1014.0
20260507034505 2 173 3.2 3.2 0.00 0.00 0.00 63 1014.0
20260507034003 2 179 3.2 3.2 0.00 0.00 0.00 63 1014.0
20260507033500 2 178 3.2 3.2 0.00 0.00 0.00 63 1014.2
20260507032957 2 167 3.2 3.2 0.00 0.00 0.00 62 1014.1
20260507032454 2 170 3.2 3.2 0.00 0.00 0.00 62 1014.1
20260507031950 2 204 4.8 4.8 0.00 0.00 0.00 61 1014.1
20260507031447 2 186 3.2 3.2 0.00 0.00 0.00 61 1014.1
20260507030944 2 176 3.2 4.8 0.00 0.00 0.00 61 1014.3
20260507030441 2 172 3.2 3.2 0.00 0.00 0.00 60 1014.1
20260507025938 2 190 3.2 3.2 0.00 0.00 0.00 61 1013.9
20260507025435 2 162 1.6 3.2 0.00 0.00 0.00 61 1014.1
20260507024933 2 149 3.2 3.2 0.00 0.00 0.00 61 1014.0
20260507024430 2 19 0.0 4.8 0.00 0.00 0.00 60 1014.1
20260507023926 2 228 3.2 6.4 0.00 0.00 0.00 60 1014.2
20260507023423 2 238 4.8 4.8 0.00 0.00 0.00 60 1014.3
20260507022920 2 231 3.2 3.2 0.00 0.00 0.00 60 1014.1
20260507022417 2 62 0.0 3.2 0.00 0.00 0.00 60 1014.0
20260507021912 2 251 0.0 3.2 0.00 0.00 0.00 60 1014.1
20260507021408 2 266 4.8 4.8 0.00 0.00 0.00 59 1014.1
20260507020906 2 189 3.2 6.4 0.00 0.00 0.00 60 1014.0
20260507020402 2 150 3.2 3.2 0.00 0.00 0.00 60 1014.0
20260507015859 2 258 0.0 4.8 0.00 0.00 0.00 59 1014.0
20260507015357 2 202 1.6 6.4 0.00 0.00 0.00 59 1014.0
20260507014854 2 274 1.6 3.2 0.00 0.00 0.00 59 1014.0
20260507014350 2 193 3.2 3.2 0.00 0.00 0.00 58 1013.8
20260507013847 2 167 3.2 4.8 0.00 0.00 0.00 59 1013.6